����,���ϕ���(m/s),���ϕ���,�ő�u�ԕ���(m/s),�ő啗��������,�C��(��),���x(%),10���Ԉړ��ώZ�J��(mm),1���Ԉړ��ώZ�J��(mm),���J��(mm),�݌v�J��(mm)
2023-08-14T00:00:00+09:00,0.9,��,2.9,���쓌,26.7,77.9,0,0,0,0
2023-08-14T00:01:00+09:00,0.8,��,2.8,���k��,26.7,77.9,0,0,0,0
2023-08-14T00:02:00+09:00,0.7,��,2,�쓌,26.6,77.8,0,0,0,0
2023-08-14T00:03:00+09:00,0.7,���쓌,2,�쓌,26.7,78,0,0,0,0
2023-08-14T00:04:00+09:00,0.7,���쓌,2,�쓌,26.7,77.9,0,0,0,0
2023-08-14T00:05:00+09:00,0.8,���쓌,2,�쓌,26.7,77.5,0,0,0,0
2023-08-14T00:06:00+09:00,0.9,���쓌,2,�쓌,26.6,77.5,0,0,0,0
2023-08-14T00:07:00+09:00,1,���쓌,2,�쓌,26.6,77.5,0,0,0,0
2023-08-14T00:08:00+09:00,1.1,���쓌,2,�쓌,26.5,77.6,0,0,0,0
2023-08-14T00:09:00+09:00,1.1,���쓌,2,�쓌,26.5,77.8,0,0,0,0
2023-08-14T00:10:00+09:00,1.1,���쓌,2,�쓌,26.8,78.6,0,0,0,0
2023-08-14T00:11:00+09:00,1.1,���쓌,2,�쓌,26.9,78,0,0,0,0
2023-08-14T00:12:00+09:00,1,���쓌,1.9,��,26.8,77.4,0,0,0,0
2023-08-14T00:13:00+09:00,0.9,���쓌,1.9,��,26.8,77.2,0,0,0,0
2023-08-14T00:14:00+09:00,0.9,���쓌,1.9,��,26.7,77.4,0,0,0,0
2023-08-14T00:15:00+09:00,0.8,�쓌,1.9,��,26.6,77.6,0,0,0,0
2023-08-14T00:16:00+09:00,0.8,�쓌,1.8,���쓌,26.6,77.9,0,0,0,0
2023-08-14T00:17:00+09:00,0.7,�쓌,1.8,���쓌,26.8,78.6,0,0,0,0
2023-08-14T00:18:00+09:00,0.7,�쓌,2,���쓌,26.7,77.8,0,0,0,0
2023-08-14T00:19:00+09:00,0.8,�쓌,2,���쓌,26.6,77.8,0,0,0,0
2023-08-14T00:20:00+09:00,0.9,�쓌,2,���쓌,26.6,78,0,0,0,0
2023-08-14T00:21:00+09:00,0.9,�쓌,2.4,���k��,26.5,78,0,0,0,0
2023-08-14T00:22:00+09:00,1,�쓌,2.4,���k��,26.5,77.9,0,0,0,0
2023-08-14T00:23:00+09:00,1.1,���쓌,3.3,���쓌,26.5,78.1,0,0,0,0
2023-08-14T00:24:00+09:00,1.3,���쓌,3.5,���쓌,26.5,78,0,0,0,0
2023-08-14T00:25:00+09:00,1.4,���쓌,4.9,���쓌,26.5,77.9,0,0,0,0
2023-08-14T00:26:00+09:00,1.5,���쓌,4.9,���쓌,26.5,77.8,0,0,0,0
2023-08-14T00:27:00+09:00,1.6,���쓌,4.9,���쓌,26.6,77.9,0,0,0,0
2023-08-14T00:28:00+09:00,1.7,���쓌,4.9,���쓌,26.6,77.8,0,0,0,0
2023-08-14T00:29:00+09:00,1.8,���쓌,4.9,���쓌,26.6,77.8,0,0,0,0
2023-08-14T00:30:00+09:00,1.9,���쓌,4.9,���쓌,26.6,77.8,0,0,0,0
2023-08-14T00:31:00+09:00,2,���쓌,4.9,���쓌,26.6,77.8,0,0,0,0
2023-08-14T00:32:00+09:00,2.1,���쓌,4.9,���쓌,26.6,77.8,0,0,0,0
2023-08-14T00:33:00+09:00,2.1,���쓌,4.9,���쓌,26.6,77.7,0,0,0,0
2023-08-14T00:34:00+09:00,2.1,���쓌,4.9,���쓌,26.5,77.8,0,0,0,0
2023-08-14T00:35:00+09:00,2.1,���쓌,3.7,���쓌,26.5,77.9,0,0,0,0
2023-08-14T00:36:00+09:00,2.2,���쓌,4,��,26.5,78,0,0,0,0
2023-08-14T00:37:00+09:00,2.3,���쓌,4.4,���쓌,26.5,78,0,0,0,0
2023-08-14T00:38:00+09:00,2.4,���쓌,4.4,���쓌,26.5,78.1,0,0,0,0
2023-08-14T00:39:00+09:00,2.4,��,4.4,���쓌,26.5,78.1,0,0,0,0
2023-08-14T00:40:00+09:00,2.4,��,4.4,���쓌,26.5,78,0,0,0,0
2023-08-14T00:41:00+09:00,2.4,��,4.4,���쓌,26.5,78,0,0,0,0
2023-08-14T00:42:00+09:00,2.4,��,4.4,���쓌,26.5,78.1,0,0,0,0
2023-08-14T00:43:00+09:00,2.3,��,4.4,���쓌,26.6,78.1,0,0,0,0
2023-08-14T00:44:00+09:00,2.3,��,4.4,���쓌,26.6,78.2,0,0,0,0
2023-08-14T00:45:00+09:00,2.2,��,4.4,���쓌,26.6,78.1,0,0,0,0
2023-08-14T00:46:00+09:00,2.1,��,4.4,���쓌,26.6,78.1,0,0,0,0
2023-08-14T00:47:00+09:00,1.9,��,3.9,��,26.6,78,0,0,0,0
2023-08-14T00:48:00+09:00,1.8,��,3,��,26.6,78.1,0,0,0,0
2023-08-14T00:49:00+09:00,1.7,��,3.2,���쓌,26.6,78.2,0,0,0,0
2023-08-14T00:50:00+09:00,1.7,��,3.2,���쓌,26.5,78.3,0,0,0,0
2023-08-14T00:51:00+09:00,1.6,��,3.2,���쓌,26.5,78.4,0,0,0,0
2023-08-14T00:52:00+09:00,1.5,��,3.2,���쓌,26.5,78.7,0,0,0,0
2023-08-14T00:53:00+09:00,1.6,���k��,3.2,���쓌,26.4,78.8,0,0,0,0
2023-08-14T00:54:00+09:00,1.6,���k��,3.2,���쓌,26.4,78.9,0,0,0,0
2023-08-14T00:55:00+09:00,1.6,���k��,3.2,���쓌,26.4,79,0,0,0,0
2023-08-14T00:56:00+09:00,1.7,���k��,3.2,���쓌,26.5,79,0,0,0,0
2023-08-14T00:57:00+09:00,1.7,���k��,3.2,���쓌,26.5,79,0,0,0,0
2023-08-14T00:58:00+09:00,1.7,���k��,3.2,���쓌,26.5,78.9,0,0,0,0
2023-08-14T00:59:00+09:00,1.7,���k��,2.9,���k��,26.5,78.6,0,0,0,0
2023-08-14T01:00:00+09:00,1.6,���k��,2.9,���k��,26.5,78.5,0,0,0,0
2023-08-14T01:01:00+09:00,1.6,���k��,2.9,���k��,26.5,78.5,0,0,0,0
2023-08-14T01:02:00+09:00,1.7,���k��,2.9,���k��,26.5,78.5,0,0,0,0
2023-08-14T01:03:00+09:00,1.8,���k��,4,���k��,26.5,78.5,0,0,0,0
2023-08-14T01:04:00+09:00,1.7,���k��,4,���k��,26.5,78.5,0,0,0,0
2023-08-14T01:05:00+09:00,1.8,��,4,���k��,26.5,78.5,0,0,0,0
2023-08-14T01:06:00+09:00,1.8,��,4,���k��,26.5,78.5,0,0,0,0
2023-08-14T01:07:00+09:00,2,��,4,���k��,26.5,78.6,0,0,0,0
2023-08-14T01:08:00+09:00,2,��,4,���k��,26.5,78.6,0,0,0,0
2023-08-14T01:09:00+09:00,2,��,4,���k��,26.5,78.6,0,0,0,0
2023-08-14T01:10:00+09:00,2.1,��,4,���k��,26.4,78.6,0,0,0,0
2023-08-14T01:11:00+09:00,2,��,4,���k��,26.4,78.7,0,0,0,0
2023-08-14T01:12:00+09:00,2,��,4,���k��,26.4,78.7,0,0,0,0
2023-08-14T01:13:00+09:00,1.9,��,3.7,��,26.4,78.8,0,0,0,0
2023-08-14T01:14:00+09:00,1.9,��,3.7,��,26.4,78.7,0,0,0,0
2023-08-14T01:15:00+09:00,1.8,��,3.4,���쓌,26.4,78.7,0,0,0,0
2023-08-14T01:16:00+09:00,1.7,��,3.4,���쓌,26.5,78.6,0,0,0,0
2023-08-14T01:17:00+09:00,1.7,��,3.8,��,26.5,78.5,0,0,0,0
2023-08-14T01:18:00+09:00,,,,,,,,,,
2023-08-14T01:19:00+09:00,1.8,��,4.1,��,26.5,78.4,0,0,0,0
2023-08-14T01:20:00+09:00,1.9,��,4.1,��,26.5,78.4,0,0,0,0
2023-08-14T01:21:00+09:00,2,��,4.1,��,26.5,78.4,0,0,0,0
2023-08-14T01:22:00+09:00,2,��,4.1,��,26.5,78.4,0,0,0,0
2023-08-14T01:23:00+09:00,2,��,4.1,��,26.5,78.3,0,0,0,0
2023-08-14T01:24:00+09:00,2,��,4.1,��,26.5,78.2,0,0,0,0
2023-08-14T01:25:00+09:00,2,��,4.1,��,26.5,78.2,0,0,0,0
2023-08-14T01:26:00+09:00,1.9,��,4.1,��,26.5,78.2,0,0,0,0
2023-08-14T01:27:00+09:00,1.8,��,4.1,��,26.5,78.2,0,0,0,0
2023-08-14T01:28:00+09:00,1.7,��,3.5,���쓌,26.4,78.4,0,0,0,0
2023-08-14T01:29:00+09:00,1.7,���k��,3.5,���쓌,26.4,78.7,0,0,0,0
2023-08-14T01:30:00+09:00,1.6,���k��,3.5,���쓌,26.5,78.9,0,0,0,0
2023-08-14T01:31:00+09:00,1.7,���k��,4.7,���k��,26.5,78.8,0,0,0,0
2023-08-14T01:32:00+09:00,1.9,���k��,4.7,���k��,26.5,78.6,0,0,0,0
2023-08-14T01:33:00+09:00,2,���k��,4.7,���k��,26.5,78.5,0,0,0,0
2023-08-14T01:34:00+09:00,2,���k��,4.7,���k��,26.5,78.5,0,0,0,0
2023-08-14T01:35:00+09:00,2.1,���k��,4.7,���k��,26.5,78.5,0,0,0,0
2023-08-14T01:36:00+09:00,2.3,���k��,4.7,���k��,26.5,78.5,0,0,0,0
2023-08-14T01:37:00+09:00,2.3,���k��,4.7,���k��,26.5,78.4,0,0,0,0
2023-08-14T01:38:00+09:00,2.3,���k��,4.7,���k��,26.5,78.6,0,0,0,0
2023-08-14T01:39:00+09:00,2.4,���k��,4.7,���k��,26.5,78.6,0,0,0,0
2023-08-14T01:40:00+09:00,2.3,���k��,4.7,���k��,26.5,78.6,0,0,0,0
2023-08-14T01:41:00+09:00,2.2,���k��,4.2,���k��,26.5,78.7,0,0,0,0
2023-08-14T01:42:00+09:00,2,���k��,3.1,���k��,26.5,78.7,0,0,0,0
2023-08-14T01:43:00+09:00,1.8,���k��,3.1,���k��,26.5,78.8,0,0,0,0
2023-08-14T01:44:00+09:00,1.8,���k��,3.1,���k��,26.5,78.8,0,0,0,0
2023-08-14T01:45:00+09:00,1.7,���k��,2.8,���k��,26.5,78.8,0,0,0,0
2023-08-14T01:46:00+09:00,1.7,���k��,3.1,���k��,26.5,78.9,0,0,0,0
2023-08-14T01:47:00+09:00,1.7,���k��,3.1,���k��,26.5,79,0,0,0,0
2023-08-14T01:48:00+09:00,1.7,���k��,3.1,���k��,26.5,79.1,0,0,0,0
2023-08-14T01:49:00+09:00,1.7,���k��,3.1,���k��,26.5,79.2,0,0,0,0
2023-08-14T01:50:00+09:00,1.6,���k��,3.1,���k��,26.5,79.2,0,0,0,0
2023-08-14T01:51:00+09:00,1.6,���k��,3.1,���k��,26.4,79.2,0,0,0,0
2023-08-14T01:52:00+09:00,1.6,��,3.1,���k��,26.4,79.2,0,0,0,0
2023-08-14T01:53:00+09:00,1.7,��,3.5,���쓌,26.5,79.2,0,0,0,0
2023-08-14T01:54:00+09:00,1.7,��,3.5,���쓌,26.5,79.2,0,0,0,0
2023-08-14T01:55:00+09:00,1.8,��,3.5,���쓌,26.5,79.2,0,0,0,0
2023-08-14T01:56:00+09:00,1.7,��,3.5,���쓌,26.5,79.2,0,0,0,0
2023-08-14T01:57:00+09:00,1.8,��,3.5,���쓌,26.5,79.1,0,0,0,0
2023-08-14T01:58:00+09:00,1.8,��,3.5,���쓌,26.5,79.1,0,0,0,0
2023-08-14T01:59:00+09:00,1.8,��,3.5,���쓌,26.5,79,0,0,0,0
2023-08-14T02:00:00+09:00,1.8,���k��,3.5,���쓌,26.5,79.1,0,0,0,0
2023-08-14T02:01:00+09:00,1.8,���k��,3.5,���쓌,26.5,79.1,0,0,0,0
2023-08-14T02:02:00+09:00,1.8,���k��,3.5,���쓌,26.5,79.1,0,0,0,0
2023-08-14T02:03:00+09:00,1.8,���k��,3.3,�k��,26.4,79.2,0,0,0,0
2023-08-14T02:04:00+09:00,1.8,�k��,3.3,�k��,26.4,79.2,0,0,0,0
2023-08-14T02:05:00+09:00,1.7,�k��,3.3,�k��,26.4,79.3,0,0,0,0
2023-08-14T02:06:00+09:00,1.6,���k��,3.3,�k��,26.4,79.6,0,0,0,0
2023-08-14T02:07:00+09:00,1.5,���k��,3.3,�k��,26.7,80.1,0,0,0,0
2023-08-14T02:08:00+09:00,1.4,���k��,3.3,�k��,26.6,79,0,0,0,0
2023-08-14T02:09:00+09:00,1.4,���k��,3.3,�k��,26.6,78.8,0,0,0,0
2023-08-14T02:10:00+09:00,1.4,���k��,3.3,�k��,26.6,78.8,0,0,0,0
2023-08-14T02:11:00+09:00,1.4,���k��,3.3,�k��,26.5,78.8,0,0,0,0
2023-08-14T02:12:00+09:00,1.5,���k��,3.3,�k��,26.5,78.8,0,0,0,0
2023-08-14T02:13:00+09:00,1.4,��,2.9,�k��,26.5,78.9,0,0,0,0
2023-08-14T02:14:00+09:00,1.3,��,2.2,���쓌,26.5,79,0,0,0,0
2023-08-14T02:15:00+09:00,1.3,��,2.4,��,26.5,79,0,0,0,0
2023-08-14T02:16:00+09:00,1.4,��,2.4,��,26.5,79.2,0,0,0,0
2023-08-14T02:17:00+09:00,1.4,��,2.4,��,26.5,79.2,0,0,0,0
2023-08-14T02:18:00+09:00,1.5,��,2.5,�k�k��,26.5,79.2,0,0,0,0
2023-08-14T02:19:00+09:00,1.5,��,2.5,�k�k��,26.4,79.4,0,0,0,0
2023-08-14T02:20:00+09:00,1.6,��,2.9,���쓌,26.4,79.4,0,0,0,0
2023-08-14T02:21:00+09:00,1.6,��,3.1,��,26.5,79.7,0,0,0,0
2023-08-14T02:22:00+09:00,1.8,��,4.4,�k��,26.5,79.8,0,0,0,0
2023-08-14T02:23:00+09:00,1.9,��,4.4,�k��,26.5,79.6,0,0,0,0
2023-08-14T02:24:00+09:00,1.9,��,4.4,�k��,26.4,79.5,0,0,0,0
2023-08-14T02:25:00+09:00,1.9,��,4.4,�k��,26.4,79.7,0,0,0,0
2023-08-14T02:26:00+09:00,2,��,4.4,�k��,26.4,79.6,0,0,0,0
2023-08-14T02:27:00+09:00,2.1,��,4.4,�k��,26.5,79.7,0,0,0,0
2023-08-14T02:28:00+09:00,2.2,��,4.4,�k��,26.5,79.6,0,0,0,0
2023-08-14T02:29:00+09:00,2.2,��,4.4,�k��,26.5,79.8,0,0,0,0
2023-08-14T02:30:00+09:00,2.2,��,4.4,�k��,26.5,79.7,0,0,0,0
2023-08-14T02:31:00+09:00,2.2,��,4.4,�k��,26.5,79.6,0,0,0,0
2023-08-14T02:32:00+09:00,2,��,3.8,���쓌,26.5,79.6,0,0,0,0
2023-08-14T02:33:00+09:00,2,��,3.8,���쓌,26.5,79.5,0,0,0,0
2023-08-14T02:34:00+09:00,2,��,3.8,���쓌,26.4,79.6,0,0,0,0
2023-08-14T02:35:00+09:00,2,��,3.8,���쓌,26.4,79.7,0,0,0,0
2023-08-14T02:36:00+09:00,2,��,3.8,���쓌,26.4,79.7,0,0,0,0
2023-08-14T02:37:00+09:00,2,��,3.8,���쓌,26.4,79.8,0,0,0,0
2023-08-14T02:38:00+09:00,1.9,��,3.3,���쓌,26.4,80,0,0,0,0
2023-08-14T02:39:00+09:00,2,��,3.4,��,26.4,80.3,0,0,0,0
2023-08-14T02:40:00+09:00,2,��,3.4,��,26.4,80.3,0,0,0,0
2023-08-14T02:41:00+09:00,2,��,3.4,��,26.4,80.2,0,0,0,0
2023-08-14T02:42:00+09:00,2,��,3.4,��,26.4,80.2,0,0,0,0
2023-08-14T02:43:00+09:00,2,��,3.4,��,26.4,80.2,0,0,0,0
2023-08-14T02:44:00+09:00,2.1,���쓌,3.4,��,26.4,80.3,0,0,0,0
2023-08-14T02:45:00+09:00,2.2,���쓌,3.7,���쓌,26.4,80.4,0,0,0,0
2023-08-14T02:46:00+09:00,2.1,���쓌,3.7,���쓌,26.4,80.3,0,0,0,0
2023-08-14T02:47:00+09:00,2.1,���쓌,3.7,���쓌,26.4,80.4,0,0,0,0
2023-08-14T02:48:00+09:00,2,���쓌,3.7,���쓌,26.4,80.4,0,0,0,0
2023-08-14T02:49:00+09:00,1.9,���쓌,3.7,���쓌,26.4,80.4,0,0,0,0
2023-08-14T02:50:00+09:00,1.8,���쓌,3.7,���쓌,26.4,80.4,0,0,0,0
2023-08-14T02:51:00+09:00,1.8,���쓌,3.7,���쓌,26.5,80.5,0,0,0,0
2023-08-14T02:52:00+09:00,1.7,���쓌,3.7,���쓌,26.4,80.4,0,0,0,0
2023-08-14T02:53:00+09:00,1.6,���쓌,3.7,���쓌,26.4,80.4,0,0,0,0
2023-08-14T02:54:00+09:00,1.6,���쓌,3.7,���쓌,26.4,80.4,0,0,0,0
2023-08-14T02:55:00+09:00,1.5,���쓌,2.8,�쓌,26.4,80.5,0,0,0,0
2023-08-14T02:56:00+09:00,1.5,���쓌,2.8,�쓌,26.4,80.7,0,0,0,0
2023-08-14T02:57:00+09:00,1.6,���쓌,3.7,��,26.4,80.8,0,0,0,0
2023-08-14T02:58:00+09:00,1.7,���쓌,3.7,��,26.4,80.7,0,0,0,0
2023-08-14T02:59:00+09:00,1.8,���쓌,3.7,��,26.4,80.7,0,0,0,0
2023-08-14T03:00:00+09:00,1.8,���쓌,3.7,��,26.4,80.7,0,0,0,0
2023-08-14T03:01:00+09:00,1.8,���쓌,3.7,��,26.4,80.7,0,0,0,0
2023-08-14T03:02:00+09:00,1.9,���쓌,3.7,��,26.4,80.7,0,0,0,0
2023-08-14T03:03:00+09:00,2,���쓌,3.7,��,26.4,80.6,0,0,0,0
2023-08-14T03:04:00+09:00,2.1,���쓌,3.7,��,26.4,80.6,0,0,0,0
2023-08-14T03:05:00+09:00,2.1,���쓌,3.7,��,26.5,80.8,0,0,0,0
2023-08-14T03:06:00+09:00,2.1,���쓌,3.7,��,26.5,80.4,0,0,0,0
2023-08-14T03:07:00+09:00,2,���쓌,3.3,���쓌,26.4,80.4,0,0,0,0
2023-08-14T03:08:00+09:00,2,���쓌,3.3,���쓌,26.4,80.5,0,0,0,0
2023-08-14T03:09:00+09:00,1.9,���쓌,3.3,���쓌,26.4,80.6,0,0,0,0
2023-08-14T03:10:00+09:00,1.8,���쓌,3.3,���쓌,26.4,80.8,0,0,0,0
2023-08-14T03:11:00+09:00,1.8,���쓌,3.2,���쓌,26.4,80.8,0,0,0,0
2023-08-14T03:12:00+09:00,1.8,���쓌,3.3,���쓌,26.4,80.8,0,0,0,0
2023-08-14T03:13:00+09:00,1.8,���쓌,3.6,���쓌,26.4,80.6,0,0,0,0
2023-08-14T03:14:00+09:00,1.7,���쓌,3.6,���쓌,26.4,80.5,0,0,0,0
2023-08-14T03:15:00+09:00,1.7,���쓌,3.9,���쓌,26.4,80.5,0,0,0,0
2023-08-14T03:16:00+09:00,1.8,���쓌,3.9,���쓌,26.4,80.5,0,0,0,0
2023-08-14T03:17:00+09:00,1.9,���쓌,4,���쓌,26.4,80.5,0,0,0,0
2023-08-14T03:18:00+09:00,2,���쓌,4,���쓌,26.4,80.5,0,0,0,0
2023-08-14T03:19:00+09:00,2.1,���쓌,4,���쓌,26.4,80.4,0,0,0,0
2023-08-14T03:20:00+09:00,2.2,���쓌,4,���쓌,26.4,80.4,0,0,0,0
2023-08-14T03:21:00+09:00,2.3,��,4,���쓌,26.4,80.5,0,0,0,0
2023-08-14T03:22:00+09:00,2.3,���쓌,4,���쓌,26.4,80.5,0,0,0,0
2023-08-14T03:23:00+09:00,2.2,���쓌,4,���쓌,26.4,80.6,0,0,0,0
2023-08-14T03:24:00+09:00,2.2,���쓌,4,���쓌,26.5,80.5,0,0,0,0
2023-08-14T03:25:00+09:00,2.2,���쓌,4,���쓌,26.5,80.3,0,0,0,0
2023-08-14T03:26:00+09:00,2.1,���쓌,4,���쓌,26.5,80.2,0,0,0,0
2023-08-14T03:27:00+09:00,2.1,���쓌,3.7,���쓌,26.5,80,0,0,0,0
2023-08-14T03:28:00+09:00,2,���쓌,3.7,���쓌,26.5,80,0,0,0,0
2023-08-14T03:29:00+09:00,2,���쓌,3.7,���쓌,26.5,79.9,0,0,0,0
2023-08-14T03:30:00+09:00,1.8,���쓌,3.5,���쓌,26.5,79.7,0,0,0,0
2023-08-14T03:31:00+09:00,1.9,���쓌,3.2,���쓌,26.5,79.8,0,0,0,0
2023-08-14T03:32:00+09:00,1.9,���쓌,3.2,���쓌,26.5,79.6,0,0,0,0
2023-08-14T03:33:00+09:00,1.8,���쓌,3.2,���쓌,26.5,79.5,0,0,0,0
2023-08-14T03:34:00+09:00,1.9,��,3.5,��,26.6,79.5,0,0,0,0
2023-08-14T03:35:00+09:00,1.9,��,3.5,��,26.6,79.4,0,0,0,0
2023-08-14T03:36:00+09:00,1.9,��,3.5,��,26.5,79.3,0,0,0,0
2023-08-14T03:37:00+09:00,1.9,��,3.5,��,26.5,79.3,0,0,0,0
2023-08-14T03:38:00+09:00,1.8,��,3.5,��,26.5,79.4,0,0,0,0
2023-08-14T03:39:00+09:00,1.7,���쓌,3.5,��,26.6,79.7,0,0,0,0
2023-08-14T03:40:00+09:00,1.7,���쓌,3.5,��,26.6,79.6,0,0,0,0
2023-08-14T03:41:00+09:00,1.6,���쓌,3.5,��,26.6,79.2,0,0,0,0
2023-08-14T03:42:00+09:00,1.4,���쓌,3.5,��,26.6,79.4,0,0,0,0
2023-08-14T03:43:00+09:00,1.4,���쓌,3.5,��,26.6,79.5,0,0,0,0
2023-08-14T03:44:00+09:00,1.3,���쓌,3,���쓌,26.6,79.2,0,0,0,0
2023-08-14T03:45:00+09:00,1.2,���쓌,3,���쓌,26.6,79.2,0,0,0,0
2023-08-14T03:46:00+09:00,1.3,���쓌,3.1,���쓌,26.6,79.1,0,0,0,0
2023-08-14T03:47:00+09:00,1.5,�쓌,4.9,���쓌,26.6,79.1,0,0,0,0
2023-08-14T03:48:00+09:00,1.6,�쓌,4.9,���쓌,26.6,79,0,0,0,0
2023-08-14T03:49:00+09:00,1.6,���쓌,4.9,���쓌,26.6,79.1,0,0,0,0
2023-08-14T03:50:00+09:00,1.7,���쓌,4.9,���쓌,26.6,79.1,0,0,0,0
2023-08-14T03:51:00+09:00,1.8,���쓌,4.9,���쓌,26.5,79.2,0,0,0,0
2023-08-14T03:52:00+09:00,2,���쓌,4.9,���쓌,26.6,79.2,0,0,0,0
2023-08-14T03:53:00+09:00,2,���쓌,4.9,���쓌,26.6,79.3,0,0,0,0
2023-08-14T03:54:00+09:00,2.1,���쓌,4.9,���쓌,26.5,79.3,0,0,0,0
2023-08-14T03:55:00+09:00,2.2,���쓌,4.9,���쓌,26.5,79.3,0,0,0,0
2023-08-14T03:56:00+09:00,2.1,���쓌,4.9,���쓌,26.5,79.4,0,0,0,0
2023-08-14T03:57:00+09:00,2,���쓌,3.6,���쓌,26.6,79.4,0,0,0,0
2023-08-14T03:58:00+09:00,2.1,���쓌,3.6,���쓌,26.6,79.3,0,0,0,0
2023-08-14T03:59:00+09:00,2.2,���쓌,3.6,���쓌,26.6,79.3,0,0,0,0
2023-08-14T04:00:00+09:00,2.3,���쓌,3.6,���쓌,26.6,79.2,0,0,0,0
2023-08-14T04:01:00+09:00,2.3,��,3.6,���쓌,26.6,79.2,0,0,0,0
2023-08-14T04:02:00+09:00,2.3,��,3.6,���쓌,26.6,79.2,0,0,0,0
2023-08-14T04:03:00+09:00,2.3,��,3.6,���쓌,26.6,79.1,0,0,0,0
2023-08-14T04:04:00+09:00,2.3,��,3.6,���쓌,26.6,79.1,0,0,0,0
2023-08-14T04:05:00+09:00,2.2,��,3.6,���쓌,26.6,79.1,0,0,0,0
2023-08-14T04:06:00+09:00,2.3,��,3.6,���쓌,26.6,79.2,0,0,0,0
2023-08-14T04:07:00+09:00,2.3,��,4,���쓌,26.6,79.3,0,0,0,0
2023-08-14T04:08:00+09:00,2.4,��,5.9,���쓌,26.6,79.3,0,0,0,0
2023-08-14T04:09:00+09:00,2.6,��,5.9,���쓌,26.6,79.2,0,0,0,0
2023-08-14T04:10:00+09:00,2.7,���쓌,5.9,���쓌,26.6,79.1,0,0,0,0
2023-08-14T04:11:00+09:00,2.7,���쓌,5.9,���쓌,26.6,79,0,0,0,0
2023-08-14T04:12:00+09:00,2.6,���쓌,5.9,���쓌,26.6,78.9,0,0,0,0
2023-08-14T04:13:00+09:00,2.5,���쓌,5.9,���쓌,26.6,78.8,0,0,0,0
2023-08-14T04:14:00+09:00,2.4,���쓌,5.9,���쓌,26.6,78.8,0,0,0,0
2023-08-14T04:15:00+09:00,2.4,���쓌,5.9,���쓌,26.6,78.9,0,0,0,0
2023-08-14T04:16:00+09:00,2.3,���쓌,5.9,���쓌,26.5,79,0,0,0,0
2023-08-14T04:17:00+09:00,2.1,�쓌,5.9,���쓌,26.5,79.4,0,0,0,0
2023-08-14T04:18:00+09:00,2,�쓌,5.5,���쓌,26.5,79.6,0,0,0,0
2023-08-14T04:19:00+09:00,1.8,���쓌,4.9,���쓌,26.6,79.6,0,0,0,0
2023-08-14T04:20:00+09:00,1.7,���쓌,4.9,���쓌,26.6,79.4,0,0,0,0
2023-08-14T04:21:00+09:00,1.8,���쓌,3.8,���쓌,26.6,79.2,0,0,0,0
2023-08-14T04:22:00+09:00,1.9,�쓌,4.4,���쓌,26.6,79.1,0,0,0,0
2023-08-14T04:23:00+09:00,1.9,���쓌,4.4,���쓌,26.7,79,0,0,0,0
2023-08-14T04:24:00+09:00,1.9,���쓌,4.4,���쓌,26.7,78.9,0,0,0,0
2023-08-14T04:25:00+09:00,2,���쓌,4.4,���쓌,26.7,78.6,0,0,0,0
2023-08-14T04:26:00+09:00,2.2,���쓌,4.4,���쓌,26.7,78.6,0,0,0,0
2023-08-14T04:27:00+09:00,2.4,��,4.4,���쓌,26.7,78.6,0,0,0,0
2023-08-14T04:28:00+09:00,2.4,��,4.4,���쓌,26.7,78.5,0,0,0,0
2023-08-14T04:29:00+09:00,2.4,��,4.4,���쓌,26.7,78.5,0,0,0,0
2023-08-14T04:30:00+09:00,2.4,��,4.8,��,26.7,78.7,0,0,0,0
2023-08-14T04:31:00+09:00,2.4,��,4.8,��,26.7,78.7,0,0,0,0
2023-08-14T04:32:00+09:00,2.4,��,4.8,��,26.7,78.6,0,0,0,0
2023-08-14T04:33:00+09:00,2.6,��,4.8,��,26.7,78.6,0,0,0,0
2023-08-14T04:34:00+09:00,2.7,��,4.8,��,26.7,78.7,0,0,0,0
2023-08-14T04:35:00+09:00,2.8,���쓌,5.1,��,26.7,78.7,0,0,0,0
2023-08-14T04:36:00+09:00,2.7,��,5.1,��,26.7,78.7,0,0,0,0
2023-08-14T04:37:00+09:00,2.6,��,5.1,��,26.7,78.7,0,0,0,0
2023-08-14T04:38:00+09:00,2.6,��,5.1,��,26.7,78.8,0,0,0,0
2023-08-14T04:39:00+09:00,2.7,��,5.1,��,26.7,78.8,0,0,0,0
2023-08-14T04:40:00+09:00,2.6,��,5.1,��,26.7,78.8,0,0,0,0
2023-08-14T04:41:00+09:00,2.5,��,5.1,��,26.7,79,0,0,0,0
2023-08-14T04:42:00+09:00,2.5,��,5.1,��,26.7,79.1,0,0,0,0
2023-08-14T04:43:00+09:00,2.5,��,5.7,���쓌,26.7,79.1,0,0,0,0
2023-08-14T04:44:00+09:00,2.6,��,5.7,���쓌,26.7,79.1,0,0,0,0
2023-08-14T04:45:00+09:00,2.4,��,5.7,���쓌,26.7,79.2,0,0,0,0
2023-08-14T04:46:00+09:00,2.4,��,5.7,���쓌,26.7,79.2,0,0,0,0
2023-08-14T04:47:00+09:00,2.5,��,5.7,���쓌,26.7,79.2,0,0,0,0
2023-08-14T04:48:00+09:00,2.4,��,5.7,���쓌,26.7,79,0,0,0,0
2023-08-14T04:49:00+09:00,2.3,���쓌,5.7,���쓌,26.7,79,0,0,0,0
2023-08-14T04:50:00+09:00,2.3,���쓌,5.7,���쓌,26.8,79.1,0,0,0,0
2023-08-14T04:51:00+09:00,2.3,���쓌,5.7,���쓌,26.8,79.1,0,0,0,0
2023-08-14T04:52:00+09:00,2.2,���쓌,5.7,���쓌,26.8,79.1,0,0,0,0
2023-08-14T04:53:00+09:00,2.2,���쓌,4.4,���쓌,26.8,79.2,0,0,0,0
2023-08-14T04:54:00+09:00,2.2,���쓌,4.4,���쓌,26.8,79.3,0,0,0,0
2023-08-14T04:55:00+09:00,2.2,���쓌,4.4,���쓌,26.9,79.2,0,0,0,0
2023-08-14T04:56:00+09:00,2.2,���쓌,4.4,���쓌,26.8,79.1,0,0,0,0
2023-08-14T04:57:00+09:00,2.1,���쓌,4.4,���쓌,26.9,79.1,0,0,0,0
2023-08-14T04:58:00+09:00,2.2,���쓌,4.4,���쓌,26.8,79,0,0,0,0
2023-08-14T04:59:00+09:00,2,���쓌,4.4,���쓌,26.8,79.1,0,0,0,0
2023-08-14T05:00:00+09:00,1.9,���쓌,4.4,���쓌,26.8,79.2,0,0,0,0
2023-08-14T05:01:00+09:00,1.9,���쓌,4.4,���쓌,26.8,79.3,0,0,0,0
2023-08-14T05:02:00+09:00,2,���쓌,4.4,���쓌,26.8,79.4,0,0,0,0
2023-08-14T05:03:00+09:00,1.9,���쓌,3.4,��,26.8,79.3,0,0,0,0
2023-08-14T05:04:00+09:00,1.9,���쓌,3.6,���쓌,26.8,79.3,0,0,0,0
2023-08-14T05:05:00+09:00,1.9,���쓌,3.7,���쓌,26.8,79.5,0,0,0,0
2023-08-14T05:06:00+09:00,1.8,���쓌,3.7,���쓌,26.8,79.6,0,0,0,0
2023-08-14T05:07:00+09:00,1.9,���쓌,4.7,���쓌,26.8,79.5,0,0,0,0
2023-08-14T05:08:00+09:00,1.9,���쓌,4.7,���쓌,26.8,79.4,0,0,0,0
2023-08-14T05:09:00+09:00,2.2,���쓌,4.7,���쓌,26.8,79.5,0,0,0,0
2023-08-14T05:10:00+09:00,2.4,���쓌,4.8,���쓌,26.9,79.6,0,0,0,0
2023-08-14T05:11:00+09:00,2.3,���쓌,4.8,���쓌,26.8,79.5,0,0,0,0
2023-08-14T05:12:00+09:00,2.2,���쓌,4.8,���쓌,26.8,79.4,0,0,0,0
2023-08-14T05:13:00+09:00,2.2,���쓌,4.8,���쓌,26.8,79.5,0,0,0,0
2023-08-14T05:14:00+09:00,2.1,���쓌,4.8,���쓌,26.8,79.8,0,0,0,0
2023-08-14T05:15:00+09:00,2.2,���쓌,4.8,���쓌,26.8,79.7,0,0,0,0
2023-08-14T05:16:00+09:00,2.4,��,4.8,���쓌,26.8,79.6,0,0,0,0
2023-08-14T05:17:00+09:00,2.3,��,4.8,���쓌,26.8,79.8,0,0,0,0
2023-08-14T05:18:00+09:00,2.3,��,4.8,���쓌,26.8,79.8,0,0,0,0
2023-08-14T05:19:00+09:00,2.1,��,4.8,���쓌,26.8,79.8,0,0,0,0
2023-08-14T05:20:00+09:00,2,��,4.8,�k��,26.8,79.8,0,0,0,0
2023-08-14T05:21:00+09:00,2.1,���쓌,4.8,�k��,26.8,79.8,0,0,0,0
2023-08-14T05:22:00+09:00,2,���쓌,4.8,�k��,26.8,79.8,0,0,0,0
2023-08-14T05:23:00+09:00,2,���쓌,4.8,�k��,26.8,80,0,0,0,0
2023-08-14T05:24:00+09:00,2.1,��,4.8,�k��,26.8,79.8,0,0,0,0
2023-08-14T05:25:00+09:00,2,���쓌,4.8,�k��,26.7,80,0,0,0,0
2023-08-14T05:26:00+09:00,1.9,���쓌,3.8,���쓌,26.8,80.2,0,0,0,0
2023-08-14T05:27:00+09:00,1.9,���쓌,3.7,�쓌,26.8,80.3,0,0,0,0
2023-08-14T05:28:00+09:00,1.8,���쓌,3.7,�쓌,26.8,80.3,0,0,0,0
2023-08-14T05:29:00+09:00,1.9,���쓌,3.7,�쓌,26.8,80.4,0,0,0,0
2023-08-14T05:30:00+09:00,1.9,���쓌,4.7,��,26.8,80.3,0,0,0,0
2023-08-14T05:31:00+09:00,2,���쓌,4.7,��,26.8,80.4,0,0,0,0
2023-08-14T05:32:00+09:00,2.1,���쓌,4.7,��,26.8,80.3,0,0,0,0
2023-08-14T05:33:00+09:00,2.1,���쓌,4.7,��,26.8,80.3,0,0,0,0
2023-08-14T05:34:00+09:00,2.1,���쓌,4.7,��,26.8,80.2,0,0,0,0
2023-08-14T05:35:00+09:00,2.3,���쓌,4.7,��,26.8,80.1,0,0,0,0
2023-08-14T05:36:00+09:00,2.2,���쓌,4.7,��,26.8,80.2,0,0,0,0
2023-08-14T05:37:00+09:00,2.3,���쓌,4.7,��,26.8,80.3,0,0,0,0
2023-08-14T05:38:00+09:00,2.3,���쓌,4.7,��,26.8,80.4,0,0,0,0
2023-08-14T05:39:00+09:00,2.3,��,4.7,��,26.8,80.6,0,0,0,0
2023-08-14T05:40:00+09:00,2.5,��,4.8,���쓌,26.8,80.7,0,0,0,0
2023-08-14T05:41:00+09:00,2.5,��,4.8,���쓌,26.8,80.8,0,0,0,0
2023-08-14T05:42:00+09:00,2.6,��,4.8,���쓌,26.8,80.8,0,0,0,0
2023-08-14T05:43:00+09:00,2.7,��,4.8,���쓌,26.8,80.8,0,0,0,0
2023-08-14T05:44:00+09:00,2.7,��,4.8,���쓌,26.8,80.8,0,0,0,0
2023-08-14T05:45:00+09:00,2.6,��,4.8,���쓌,26.8,80.9,0,0,0,0
2023-08-14T05:46:00+09:00,2.6,��,4.8,���쓌,26.8,80.9,0,0,0,0
2023-08-14T05:47:00+09:00,2.6,��,4.8,���쓌,26.8,81.1,0,0,0,0
2023-08-14T05:48:00+09:00,2.6,��,4.8,���쓌,26.8,81,0,0,0,0
2023-08-14T05:49:00+09:00,2.6,��,4.8,���쓌,26.8,80.9,0,0,0,0
2023-08-14T05:50:00+09:00,2.5,��,4.6,���쓌,26.8,80.9,0,0,0,0
2023-08-14T05:51:00+09:00,2.3,��,4.4,���쓌,26.8,80.9,0,0,0,0
2023-08-14T05:52:00+09:00,2.2,��,4.4,���쓌,26.7,81,0,0,0,0
2023-08-14T05:53:00+09:00,2.1,��,4.4,���쓌,26.7,81.1,0,0,0,0
2023-08-14T05:54:00+09:00,2.2,��,4.4,���쓌,26.7,81.1,0,0,0,0
2023-08-14T05:55:00+09:00,2.4,���k��,7.1,�k��,26.8,81.1,0,0,0,0
2023-08-14T05:56:00+09:00,2.5,���k��,7.1,�k��,26.8,81,0,0,0,0
2023-08-14T05:57:00+09:00,2.4,���k��,7.1,�k��,26.8,80.9,0,0,0,0
2023-08-14T05:58:00+09:00,2.3,���k��,7.1,�k��,26.8,80.9,0,0,0,0
2023-08-14T05:59:00+09:00,2.3,���k��,7.1,�k��,26.8,80.8,0,0,0,0
2023-08-14T06:00:00+09:00,2.3,���k��,7.1,�k��,26.8,80.9,0,0,0,0
2023-08-14T06:01:00+09:00,2.2,���k��,7.1,�k��,26.8,80.9,0,0,0,0
2023-08-14T06:02:00+09:00,2.3,���k��,7.1,�k��,26.8,81.1,0,0,0,0
2023-08-14T06:03:00+09:00,2.4,��,7.1,�k��,26.8,81,0,0,0,0
2023-08-14T06:04:00+09:00,2.3,��,7.1,�k��,26.8,80.9,0,0,0,0
2023-08-14T06:05:00+09:00,2,���k��,3.9,�k,26.8,80.9,0,0,0,0
2023-08-14T06:06:00+09:00,2,���k��,4.5,�k�k��,26.8,81,0,0,0,0
2023-08-14T06:07:00+09:00,2,���k��,4.5,�k�k��,26.8,80.9,0,0,0,0
2023-08-14T06:08:00+09:00,2.1,���k��,6.2,���쓌,26.9,80.8,0,0,0,0
2023-08-14T06:09:00+09:00,2.1,���k��,6.2,���쓌,26.9,80.9,0,0,0,0
2023-08-14T06:10:00+09:00,2.3,���k��,6.2,���쓌,26.9,80.6,0,0,0,0
2023-08-14T06:11:00+09:00,2.5,���k��,6.2,���쓌,26.9,80.5,0,0,0,0
2023-08-14T06:12:00+09:00,2.6,���k��,6.2,���쓌,26.9,80.6,0,0,0,0
2023-08-14T06:13:00+09:00,2.5,���k��,6.2,���쓌,26.9,80.6,0,0,0,0
2023-08-14T06:14:00+09:00,2.5,���k��,6.2,���쓌,26.9,80.5,0,0,0,0
2023-08-14T06:15:00+09:00,2.5,���k��,6.2,���쓌,26.9,80.6,0,0,0,0
2023-08-14T06:16:00+09:00,2.5,���k��,6.2,���쓌,26.9,80.6,0,0,0,0
2023-08-14T06:17:00+09:00,2.4,���k��,6.2,���쓌,26.9,80.6,0,0,0,0
2023-08-14T06:18:00+09:00,2.5,���k��,5.3,�k��,26.9,80.6,0,0,0,0
2023-08-14T06:19:00+09:00,2.5,���k��,5.3,�k��,27,80.7,0,0,0,0
2023-08-14T06:20:00+09:00,2.4,���k��,5.3,�k��,27,80.6,0,0,0,0
2023-08-14T06:21:00+09:00,2.3,���k��,5.3,�k��,27,80.5,0,0,0,0
2023-08-14T06:22:00+09:00,2.2,���k��,5.3,�k��,27,80.4,0,0,0,0
2023-08-14T06:23:00+09:00,2.2,���k��,5.3,�k��,27,80.4,0,0,0,0
2023-08-14T06:24:00+09:00,2.2,���k��,5.3,�k��,27,80.4,0,0,0,0
2023-08-14T06:25:00+09:00,2.2,���k��,5.3,�k��,27,80.4,0,0,0,0
2023-08-14T06:26:00+09:00,2.2,���k��,5.3,�k��,27,80.4,0,0,0,0
2023-08-14T06:27:00+09:00,2.2,��,5.3,�k��,27,80.4,0,0,0,0
2023-08-14T06:28:00+09:00,2.2,��,5.4,���k��,27,80.4,0,0,0,0
2023-08-14T06:29:00+09:00,2.2,��,5.4,���k��,27,80.5,0,0,0,0
2023-08-14T06:30:00+09:00,2.1,��,5.4,���k��,27.1,80.5,0,0,0,0
2023-08-14T06:31:00+09:00,2.2,��,5.4,���k��,27.1,80.4,0,0,0,0
2023-08-14T06:32:00+09:00,2.3,��,5.4,���k��,27.1,80.3,0,0,0,0